Location: Chagrin Falls Park
(41.4139°N, 81.3865°W)
Time: 07:33:16
(UTC+00:00)

X-37B - Pass Details

Date: 01 August 2021
Orbit: 381 x 393 km, 45.0° (Epoch: 29 August)

Event Time Altitude Azimuth Distance (km) Brightness Sun altitude
Exits shadow 08:08:32 13° 124° (ESE) 1,209 3.1 -20.5°
Drops below altitude 10° 08:09:32 10° 106° (ESE) 1,393 3.7 -20.4°
Sets 08:12:14 0° 81° (E) 2,250 5.2 -20.0°
